Regional Weather Roundup
Issued by NWS

Home | Current Version | Previous Version | Text Only | Print | Product List | Glossary On
Versions: 1 2 3 4 5 6 7 8 9 10 11 12 13 14 15 16 17 18 19 20 21 22 23 24 25 26 27 28 29 30 31 32 33 34 35 36 37 38 39 40 41 42 43 44 45 46 47 48 49 50
000
ASUS43 KLSX 250357
RWRMO

WEATHER SUMMARY FOR MISSOURI
NATIONAL WEATHER SERVICE SPRINGFIELD MO
1000 PM CST FRI FEB 24 2017

NOTE: "FAIR" INDICATES FEW OR NO CLOUDS BELOW 12,000 FEET WITH NO
       SIGNIFICANT WEATHER AND/OR OBSTRUCTIONS TO VISIBILITY.
       CURRENT SKY AND/OR WEATHER CONDITIONS ARE NOT AVAILABLE FOR
       CHILLICOTHE AND FARMINGTON.

MOZ001>031-035>038-043-044-053-054-250500-
...NORTHERN AND WESTERN MISSOURI...

CITY           SKY/WX    TMP DP  RH WIND       PRES   REMARKS
KANSAS CTY INT MOCLDY    24  20  84 NW10      30.03R WCI  14
KANSAS C DTWN  CLOUDY    27  19  74 W10       30.05R WCI  17
LEE`S SUMMIT   FLURRIES  27  18  69 NW14G24   30.03R WCI  16
ST JOSEPH      CLEAR     23  20  88 W10       30.04R WCI  12
CHILLICOTHE      N/A     26  20  77 NW13G21   29.98R WCI  15

$$
MOZ066>068-077>081-088>096-101>105-250500-
...SOUTHWEST MISSOURI...

CITY           SKY/WX    TMP DP  RH WIND       PRES   REMARKS
SPRINGFIELD    CLOUDY    33  20  58 NW17G24   29.98R WCI  22
JOPLIN         CLOUDY    32  21  64 NW16G25   30.07R WCI  21

$$
MOZ032>034-039>042-045>050-055>058-069>072-250500-
...CENTRAL MISSOURI...

CITY           SKY/WX    TMP DP  RH WIND       PRES   REMARKS
COLUMBIA       NOT AVBL
JEFFERSON CITY CLOUDY    32  20  61 W26G32    29.94R WCI  18
SEDALIA        CLOUDY    30  18  60 NW22G31   29.99R WCI  17
WARRENSBURG    CLOUDY    30  19  64 NW15G23   30.01R WCI  19

$$
MOZ051-052-059>065-250500-
...EAST CENTRAL MISSOURI...

CITY           SKY/WX    TMP DP  RH WIND       PRES   REMARKS
ST LOUIS INTL  MOCLDY    40  25  55 NW23G37   29.81R WCI  30

$$
MOZ072>076-082>087-097>100-106>115-250500-
...SOUTH CENTRAL AND SOUTHEAST MISSOURI...

CITY           SKY/WX    TMP DP  RH WIND       PRES   REMARKS
CAPE GIRARDEAU NOT AVBL
POPLAR BLUFF   CLEAR     48  30  49 W14G24    29.83R
WEST PLAINS    PTCLDY    38  25  59 W15       29.91R WCI  29

$$



USA.gov is the U.S. government's official web portal to all federal, state and local government web resources and services.